[[{"header":{"parameterUnit":"m.s-1","parameterCategory":1,"la1":30.2991,"la2":30.254,"lo1":-89.0895,"lo2":-89.0444,"dy":0.0017,"dx":0.0017,"nx":28,"ny":28,"refTime":"2025-03-12T03:00:00:Z","depth":0,"parameterNumber":2,"parameterNumberName":"U-component_of_WINDS"},"data":[0,0,0,0,0,0,0,0,0,0,0,0,0,0,0,0,0,0,0,0,0,0,0,0,0,0,0,0,0,0,0,0,0,0,0,0,0,0,0,0,0,0,0,0,0,0,0,0,0,0,0,0,0,0,0,0,0,0,-1.099,-1.099,0,-1.0944,-1.0944,-1.0943,-1.0901,-1.09,-1.09,-1.0899,-1.0851,-1.085,-1.085,0,0,0,0,0,0,0,0,0,0,0,0,0,-1.1041,-1.104,-1.099,-1.099,-1.0989,-1.0944,-1.0944,-1.0943,-1.0901,-1.09,-1.09,-1.0899,-1.0852,-1.0851,-1.085,0,0,0,0,0,0,0,0,0,0,0,0,0,-1.1009,-1.104,-1.099,-1.0963,-1.096,-1.0944,-1.0944,-1.0943,-1.0901,-1.09,-1.0899,-1.0899,-1.0852,-1.0851,-1.0849,-1.0857,0,0,-1.0846,-1.0845,0,0,0,0,0,0,0,0,-1.1011,-1.1007,-1.0967,-1.0965,-1.0961,-1.0927,-1.0944,-1.0914,-1.0901,-1.0923,-1.0899,-1.0898,-1.0877,-1.0874,-1.0867,-1.0855,-1.0853,-1.0846,-1.0845,-1.0844,-1.0844,0,0,0,0,0,0,0,-1.1013,-1.1009,-1.0972,-1.0967,-1.0963,-1.0952,-1.0947,-1.0938,-1.0905,-1.0921,-1.0918,-1.0913,-1.0875,-1.0868,-1.0865,-1.0852,-1.0846,-1.0845,-1.0844,-1.0843,-1.0843,-1.0843,0,0,0,0,0,0,-1.102,-1.1011,-1.0973,-1.0971,-1.0985,-1.0952,-1.0946,-1.0939,-1.0905,-1.0899,-1.0914,-1.0911,-1.0871,-1.0867,-1.0864,-1.0869,-1.0844,-1.0843,-1.0843,-1.0842,-1.0843,-1.0844,0,0,0,0,0,0,-1.1021,-1.1017,-1.0975,-1.099,-1.0984,-1.0952,-1.0944,-1.0939,-1.0931,-1.09,-1.0893,-1.0913,-1.087,-1.0865,-1.0859,-1.0867,-1.0843,-1.0842,-1.0841,-1.0842,-1.0843,-1.0881,0,0,0,0,0,0,-1.1023,-1.1018,-1.1021,-1.099,-1.0983,-1.0972,-1.0945,-1.0938,-1.0929,-1.0926,-1.0897,-1.0891,-1.0869,-1.0861,-1.0858,-1.0864,-1.0841,-1.084,-1.0842,-1.0843,-1.0878,-1.0883,-1.0886,0,0,0,0,0,-1.1025,-1.1033,-1.1021,-1.1017,-1.0987,-1.0973,-1.0968,-1.0943,-1.093,-1.0932,-1.0912,-1.0892,-1.0867,-1.0861,-1.0857,-1.0863,-1.084,-1.0841,-1.0843,-1.0877,-1.0882,-1.0886,0,0,0,0,0,0,-1.1065,-1.1029,-1.1015,-1.1014,-1.0997,-1.0965,-1.0968,-1.0949,-1.0935,-1.0932,-1.0901,-1.0895,-1.0891,-1.0877,-1.0871,-1.0868,-1.085,-1.0851,-1.0877,-1.0882,-1.0886,-1.0889,-1.084,0,0,0,0,0,-1.1074,-1.1066,-1.1035,-1.1037,-1.1029,-1.1,-1.0993,-1.0975,-1.0955,-1.0948,-1.0927,-1.0908,-1.0896,-1.0889,-1.0876,-1.0877,-1.0869,-1.0879,-1.0883,-1.0887,-1.0887,-1.0885,-1.0888,-1.0849,-1.0849,-1.0849,0,0,-1.1092,-1.1072,-1.1068,-1.1045,-1.1029,-1.1021,-1.0994,-1.0987,-1.098,-1.0946,-1.0938,-1.0923,-1.09,-1.0897,-1.0894,-1.0885,-1.0896,-1.0889,-1.0892,-1.089,-1.0887,-1.089,-1.0894,-1.085,-1.085,-1.0849,0,0,-1.1121,-1.1105,-1.1104,-1.1089,-1.1066,-1.1046,-1.1046,-1.1017,-1.1005,-1.0997,-1.0971,-1.0963,-1.0943,-1.0927,-1.0916,-1.0938,-1.0918,-1.0935,-1.0955,-1.0953,-1.0956,-1.0959,-1.0964,-1.0967,-1.0936,-1.0936,-1.0936,0,-1.1146,-1.1133,-1.1106,-1.11,-1.1089,-1.1059,-1.1057,-1.1044,-1.1018,-1.1011,-1.1,-1.0973,-1.0956,-1.0948,-1.0953,-1.0946,-1.0944,-1.0937,-1.0958,-1.096,-1.0962,-1.0967,-1.097,-1.0938,-1.0938,-1.0938,-1.0937,0,-1.1164,-1.1155,-1.1157,-1.1132,-1.1122,-1.1119,-1.1091,-1.1084,-1.1066,-1.1048,-1.1039,-1.1017,-1.0998,-1.0995,-1.0979,-1.0984,-1.0979,-1.0964,-1.0945,-1.0968,-1.0973,-1.0975,-1.0941,-1.094,-1.094,-1.0939,0,0,-1.1216,-1.1176,-1.1177,-1.1164,-1.1136,-1.1129,-1.1123,-1.1105,-1.1098,-1.1082,-1.1075,-1.1058,-1.1044,-1.1032,-1.1013,-1.1011,-1.1027,-1.0996,-1.0995,-1.1001,-1.103,-1.104,-1.1043,-1.1015,-1.1015,-1.1016,-1.1031,0,-1.1238,-1.1226,-1.1202,-1.1197,-1.1188,-1.1159,-1.1154,-1.1135,-1.1118,-1.1107,-1.1087,-1.1075,-1.1058,-1.105,-1.1047,-1.1026,-1.1033,-1.1025,-1.1007,-1.1007,-1.1012,-1.1046,-1.1057,-1.1073,-1.1033,-1.1033,-1.1034,0,-1.1262,-1.1246,-1.1241,-1.1212,-1.1207,-1.1203,-1.1183,-1.1174,-1.1152,-1.1139,-1.1126,-1.1105,-1.1096,-1.108,-1.1067,-1.1062,-1.1054,-1.1042,-1.1042,-1.1038,-1.1021,-1.1041,-1.1078,-1.108,-1.1036,-1.1036,-1.1036,0,-1.1298,-1.1276,-1.1269,-1.126,-1.1226,-1.1224,-1.121,-1.1187,-1.1177,-1.116,-1.1153,-1.1136,-1.1126,-1.1112,-1.1087,-1.1078,-1.1076,-1.1058,-1.1064,-1.1064,-1.1063,-1.1063,-1.1097,-1.1061,-1.1061,-1.1061,-1.1061,0,-1.1324,-1.1322,-1.1285,-1.128,-1.1276,-1.1248,-1.1244,-1.1228,-1.1208,-1.1199,-1.1173,-1.1165,-1.1133,-1.1121,-1.1101,-1.1092,-1.1089,-1.1077,-1.1071,-1.1078,-1.108,-1.1071,-1.1069,-1.1061,-1.1061,-1.1061,-1.1061,0,-1.1363,-1.1338,-1.1329,-1.1298,-1.129,-1.1288,-1.1261,-1.1256,-1.1237,-1.1226,-1.1222,-1.1192,-1.1176,-1.115,-1.1127,-1.1114,-1.1108,-1.11,-1.1115,-1.1111,-1.1118,-1.1117,-1.1146,-1.1148,-1.1112,-1.1113,-1.1113,0,-1.1381,-1.1378,-1.1347,-1.1339,-1.1326,-1.1314,-1.1304,-1.1276,-1.1266,-1.124,-1.1238,-1.122,-1.1205,-1.1181,-1.1157,-1.1139,-1.1129,-1.114,-1.1126,-1.1132,-1.1127,-1.1127,-1.1125,-1.1143,-1.1144,-1.1144,-1.1145,0,-1.1414,-1.1401,-1.1388,-1.1369,-1.1358,-1.1342,-1.1325,-1.132,-1.1288,-1.1278,-1.1262,-1.125,-1.1227,-1.1209,-1.1188,-1.1172,-1.1152,-1.115,-1.1149,-1.1156,-1.1164,-1.1158,-1.1122,-1.1149,-1.1148,-1.1148,-1.1148,-1.1148,-1.1441,-1.1436,-1.1413,-1.1399,-1.1383,-1.1367,-1.136,-1.134,-1.1326,-1.1305,-1.1289,-1.1274,-1.1251,-1.122,-1.1206,-1.1193,-1.1184,-1.1184,-1.1184,-1.1184,-1.1186,-1.1168,-1.1189,-1.1189,-1.1189,-1.1188,-1.1188,0,-1.1471,-1.1455,-1.1441,-1.1418,-1.1406,-1.139,-1.137,-1.136,-1.1347,-1.1328,-1.1313,-1.1294,-1.1277,-1.1251,-1.1232,-1.1226,-1.1216,-1.1222,-1.1221,-1.1217,-1.1196,-1.1197,-1.123,-1.123,-1.123,-1.123,-1.123,-1.123,-1.1485,-1.1476,-1.1461,-1.1443,-1.1427,-1.1412,-1.1402,-1.1387,-1.1371,-1.1351,-1.1336,-1.132,-1.1297,-1.1276,-1.1259,-1.1252,-1.1245,-1.1253,-1.1243,-1.1223,-1.1219,-1.1215,-1.1216,-1.1252,-1.1252,-1.1264,-1.1265,-1.1265]},{"header":{"parameterUnit":"m.s-1","parameterCategory":1,"la1":30.2991,"la2":30.254,"lo1":-89.0895,"lo2":-89.0444,"dy":0.0017,"dx":0.0017,"nx":28,"ny":28,"refTime":"2025-03-12T03:00:00:Z","depth":0,"parameterNumber":3,"parameterNumberName":"V-component_of_WINDS"},"data":[0,0,0,0,0,0,0,0,0,0,0,0,0,0,0,0,0,0,0,0,0,0,0,0,0,0,0,0,0,0,0,0,0,0,0,0,0,0,0,0,0,0,0,0,0,0,0,0,0,0,0,0,0,0,0,0,0,0,3.1383,3.1384,0,3.1423,3.1424,3.1424,3.1458,3.1458,3.1459,3.1459,3.1497,3.1498,3.1498,0,0,0,0,0,0,0,0,0,0,0,0,0,3.1335,3.1336,3.1383,3.1384,3.1384,3.1423,3.1424,3.1424,3.1458,3.1458,3.1459,3.1459,3.1497,3.1498,3.1498,0,0,0,0,0,0,0,0,0,0,0,0,0,3.1363,3.1336,3.1383,3.1406,3.1408,3.1423,3.1424,3.1424,3.1458,3.1458,3.1459,3.1459,3.1497,3.1497,3.1498,3.1493,0,0,3.1501,3.1502,0,0,0,0,0,0,0,0,3.1362,3.1365,3.1402,3.1404,3.1407,3.1436,3.1421,3.1447,3.1458,3.1439,3.1459,3.146,3.1476,3.1479,3.1485,3.1495,3.1497,3.1502,3.1502,3.1503,3.1503,0,0,0,0,0,0,0,3.136,3.1364,3.1399,3.1403,3.1406,3.1413,3.1418,3.1426,3.1454,3.1441,3.1443,3.1447,3.1478,3.1484,3.1486,3.1497,3.1502,3.1502,3.1503,3.1503,3.1506,3.1506,0,0,0,0,0,0,3.1355,3.1362,3.1398,3.14,3.1385,3.1414,3.1419,3.1426,3.1454,3.1459,3.1447,3.1449,3.1482,3.1485,3.1488,3.1485,3.1503,3.1503,3.1504,3.1507,3.1506,3.1506,0,0,0,0,0,0,3.1353,3.1357,3.1396,3.1382,3.1387,3.1414,3.1422,3.1427,3.1433,3.1459,3.1464,3.1448,3.1482,3.1486,3.1492,3.1486,3.1504,3.1505,3.1507,3.1507,3.1506,3.1478,0,0,0,0,0,0,3.1352,3.1357,3.1355,3.1381,3.1388,3.14,3.1421,3.1427,3.1435,3.1438,3.1461,3.1466,3.1483,3.149,3.1493,3.1488,3.1506,3.1508,3.1507,3.1506,3.1479,3.1476,3.1473,0,0,0,0,0,3.135,3.1345,3.1355,3.1359,3.1387,3.14,3.1404,3.1425,3.1434,3.1433,3.145,3.1465,3.1486,3.1491,3.1494,3.1489,3.1509,3.1507,3.1506,3.148,3.1477,3.1473,0,0,0,0,0,0,3.1316,3.1349,3.136,3.1364,3.1379,3.1406,3.1405,3.142,3.1432,3.1434,3.1459,3.1464,3.1467,3.1478,3.1483,3.1486,3.1499,3.1499,3.1479,3.1475,3.1472,3.147,3.1506,0,0,0,0,0,3.1309,3.1318,3.1345,3.1346,3.1353,3.1377,3.1384,3.1399,3.1415,3.1422,3.1439,3.1454,3.1464,3.147,3.1481,3.1481,3.1487,3.1479,3.1476,3.1473,3.1473,3.1475,3.1472,3.1502,3.1502,3.1502,0,0,3.1294,3.1313,3.1317,3.1339,3.1353,3.1361,3.1383,3.139,3.1396,3.1423,3.143,3.1443,3.1461,3.1464,3.1467,3.1474,3.1466,3.1472,3.147,3.1471,3.1474,3.1471,3.1468,3.1501,3.1501,3.1501,0,0,3.1272,3.1287,3.129,3.1304,3.1325,3.1341,3.1342,3.1367,3.1377,3.1385,3.1405,3.1412,3.1429,3.1442,3.1451,3.1435,3.145,3.1437,3.1422,3.1424,3.1422,3.142,3.1415,3.1413,3.1436,3.1436,3.1436,0,3.1251,3.1266,3.1289,3.1296,3.1306,3.1331,3.1334,3.1346,3.1368,3.1374,3.1382,3.1405,3.1419,3.1427,3.1423,3.1428,3.143,3.1435,3.142,3.1418,3.1417,3.1413,3.1411,3.1435,3.1435,3.1435,3.1435,0,3.1239,3.1249,3.1248,3.1272,3.1281,3.1286,3.131,3.1316,3.1331,3.1346,3.1354,3.1372,3.1388,3.139,3.1403,3.14,3.1404,3.1416,3.143,3.1412,3.1409,3.1408,3.1433,3.1433,3.1434,3.1434,0,0,3.1197,3.1234,3.1234,3.1245,3.1271,3.1278,3.1284,3.1301,3.1307,3.1321,3.1328,3.1342,3.1353,3.1363,3.1378,3.1379,3.1368,3.1391,3.1392,3.1387,3.1366,3.1358,3.1356,3.1377,3.1377,3.1377,3.1365,0,3.118,3.1194,3.1216,3.1222,3.1232,3.1256,3.1262,3.1278,3.1293,3.1303,3.1319,3.1329,3.1343,3.1349,3.1352,3.1368,3.1364,3.1369,3.1383,3.1384,3.1379,3.1354,3.1345,3.1333,3.1364,3.1364,3.1363,0,3.1162,3.1178,3.1185,3.1212,3.1217,3.1221,3.1239,3.1248,3.1267,3.1278,3.1289,3.1306,3.1314,3.1326,3.1337,3.1341,3.1348,3.1357,3.1357,3.136,3.1373,3.1357,3.133,3.1328,3.1361,3.1362,3.1362,0,3.1132,3.1154,3.1163,3.1172,3.1202,3.1205,3.1218,3.1238,3.1246,3.1261,3.1268,3.1282,3.1291,3.1302,3.1322,3.1329,3.1332,3.1345,3.1341,3.1341,3.1341,3.1341,3.1316,3.1344,3.1344,3.1344,3.1344,0,3.1112,3.1116,3.115,3.1155,3.1161,3.1186,3.119,3.1205,3.1222,3.1231,3.1252,3.1259,3.1285,3.1295,3.1311,3.1319,3.1322,3.1331,3.1335,3.133,3.1329,3.1335,3.1337,3.1343,3.1343,3.1344,3.1344,0,3.1079,3.1102,3.1113,3.1142,3.1149,3.1152,3.1177,3.1182,3.1199,3.1209,3.1213,3.1238,3.1252,3.1273,3.1292,3.1303,3.1308,3.1314,3.1302,3.1305,3.13,3.1301,3.1279,3.1277,3.1305,3.1304,3.1304,0,3.1065,3.1069,3.1099,3.1107,3.112,3.1131,3.1141,3.1166,3.1175,3.1198,3.1201,3.1216,3.1229,3.1249,3.1269,3.1284,3.1292,3.1283,3.1294,3.1289,3.1293,3.1293,3.1294,3.1281,3.128,3.128,3.128,0,3.1038,3.105,3.1064,3.1082,3.1094,3.1109,3.1125,3.113,3.1158,3.1167,3.1182,3.1192,3.1213,3.1228,3.1246,3.1258,3.1274,3.1276,3.1276,3.1271,3.1264,3.1269,3.1296,3.1276,3.1277,3.1277,3.1277,3.1277,3.1016,3.1021,3.1044,3.1059,3.1074,3.1089,3.1097,3.1115,3.1128,3.1147,3.116,3.1174,3.1194,3.122,3.1232,3.1243,3.1249,3.1249,3.1249,3.1249,3.1248,3.1262,3.1246,3.1246,3.1246,3.1246,3.1246,0,3.0991,3.1007,3.1021,3.1044,3.1056,3.1071,3.109,3.1099,3.1111,3.1129,3.1142,3.1159,3.1174,3.1196,3.1212,3.1217,3.1224,3.122,3.1221,3.1224,3.124,3.1239,3.1214,3.1214,3.1214,3.1214,3.1214,3.1214,3.098,3.0991,3.1005,3.1024,3.104,3.1055,3.1064,3.1078,3.1093,3.1112,3.1125,3.1139,3.1158,3.1177,3.1191,3.1197,3.1202,3.1196,3.1204,3.1219,3.1222,3.1225,3.1224,3.1197,3.1197,3.1188,3.1187,3.1187]}]]